When you browse on this site, cookies collect data to enhance your experience and personalize the content and advertising you see.
Visit our Privacy Policy to learn more. By continuing to use the site, you agree to this use of cookies and data.
  • In Deutschland
  • Länderverzeichnis
  • Für 7 Tage
  • Wassertemperatur
  • Wetterkarte
  • Widgets
  • user-avatar
    Anmelden

    Stündliche Wetter Tibissa

    Heute, 11 Dezember, Mittwoch

    Zeit Temperatur Niederschläge Wind Luftdruck Luftfeuchtigkeit
    00:00 +1°C° 0 mm 14 m/S 684 mmHg 81%
    01:00 +1°C° 0 mm 14 m/S 684 mmHg 83%
    02:00 +1°C° 0 mm 13 m/S 684 mmHg 84%
    03:00 +1°C° 0 mm 13 m/S 684 mmHg 85%
    04:00 0°C° 0 mm 12 m/S 684 mmHg 87%
    05:00 +1°C° 0 mm 11 m/S 684 mmHg 88%
    06:00 +1°C° 0 mm 11 m/S 684 mmHg 89%
    07:00 +1°C° 0 mm 10 m/S 684 mmHg 90%
    08:00 +2°C° 0 mm 10 m/S 685 mmHg 86%
    09:00 +2°C° 0 mm 11 m/S 685 mmHg 81%
    10:00 +3°C° 0 mm 11 m/S 686 mmHg 77%
    11:00 +5°C° 0 mm 10 m/S 685 mmHg 73%
    12:00 +5°C° 0 mm 10 m/S 685 mmHg 70%
    13:00 +6°C° 0 mm 9 m/S 685 mmHg 66%
    14:00 +6°C° 0 mm 8 m/S 685 mmHg 63%
    15:00 +6°C° 0 mm 8 m/S 684 mmHg 60%
    16:00 +6°C° 0 mm 7 m/S 684 mmHg 57%
    17:00 +7°C° 0 mm 6 m/S 684 mmHg 60%
    18:00 +6°C° 0 mm 4 m/S 684 mmHg 62%
    19:00 +5°C° 0 mm 3 m/S 684 mmHg 65%
    20:00 +5°C° 0 mm 3 m/S 684 mmHg 61%
    21:00 +5°C° 0 mm 3 m/S 684 mmHg 57%
    22:00 +5°C° 0 mm 3 m/S 684 mmHg 53%
    23:00 +5°C° 0 mm 3 m/S 683 mmHg 51%

    Morgen, 12 Dezember, Donnerstag

    Zeit Temperatur Niederschläge Wind Luftdruck Luftfeuchtigkeit
    00:00 +5°C° 0 mm 3 m/S 683 mmHg 49%
    01:00 +5°C° 0 mm 3 m/S 683 mmHg 47%
    02:00 +5°C° 0 mm 4 m/S 683 mmHg 49%
    03:00 +5°C° 0 mm 4 m/S 682 mmHg 51%
    04:00 +5°C° 0 mm 5 m/S 682 mmHg 53%
    05:00 +5°C° 0 mm 5 m/S 682 mmHg 61%
    06:00 +4°C° 0 mm 6 m/S 683 mmHg 70%
    07:00 +4°C° 0 mm 6 m/S 683 mmHg 78%
    08:00 +4°C° 0 mm 7 m/S 683 mmHg 79%
    09:00 +5°C° 0 mm 8 m/S 684 mmHg 79%
    10:00 +5°C° 0 mm 10 m/S 684 mmHg 80%
    11:00 +6°C° 0 mm 9 m/S 684 mmHg 76%
    12:00 +6°C° 0 mm 9 m/S 684 mmHg 72%
    13:00 +7°C° 0 mm 8 m/S 684 mmHg 68%
    14:00 +6°C° 0 mm 8 m/S 683 mmHg 66%
    15:00 +6°C° 0 mm 7 m/S 683 mmHg 65%
    16:00 +6°C° 0 mm 7 m/S 683 mmHg 63%
    17:00 +5°C° 0 mm 6 m/S 683 mmHg 66%
    18:00 +6°C° 0 mm 4 m/S 683 mmHg 68%
    19:00 +5°C° 0 mm 3 m/S 682 mmHg 71%
    20:00 +5°C° 0 mm 3 m/S 682 mmHg 69%
    21:00 +5°C° 0 mm 4 m/S 682 mmHg 68%
    22:00 +5°C° 0 mm 4 m/S 682 mmHg 66%
    23:00 +5°C° 0 mm 4 m/S 682 mmHg 69%

    übermorgen, 13 Dezember, Freitag

    Zeit Temperatur Niederschläge Wind Luftdruck Luftfeuchtigkeit
    00:00 +4°C° 0 mm 3 m/S 681 mmHg 71%
    01:00 +4°C° 0 mm 3 m/S 681 mmHg 74%
    02:00 +4°C° 0 mm 3 m/S 681 mmHg 73%
    03:00 +4°C° 0 mm 3 m/S 680 mmHg 72%
    04:00 +3°C° 0 mm 3 m/S 680 mmHg 72%
    05:00 +3°C° 0 mm 3 m/S 680 mmHg 73%
    06:00 +3°C° 0 mm 3 m/S 680 mmHg 75%
    07:00 +3°C° 0 mm 4 m/S 680 mmHg 77%
    08:00 +5°C° 0 mm 5 m/S 680 mmHg 73%
    09:00 +5°C° 0 mm 6 m/S 681 mmHg 70%
    10:00 +8°C° 0 mm 7 m/S 681 mmHg 66%
    11:00 +7°C° 0 mm 8 m/S 681 mmHg 66%
    12:00 +9°C° 0 mm 8 m/S 680 mmHg 66%
    13:00 +10°C° 0 mm 9 m/S 680 mmHg 65%
    14:00 +10°C° 0 mm 9 m/S 680 mmHg 66%
    15:00 +10°C° 0 mm 9 m/S 679 mmHg 68%
    16:00 +10°C° 0 mm 9 m/S 679 mmHg 69%
    17:00 +10°C° 0 mm 9 m/S 679 mmHg 73%
    18:00 +8°C° 0 mm 9 m/S 679 mmHg 77%
    19:00 +8°C° 0 mm 9 m/S 679 mmHg 80%
    20:00 +8°C° 0 mm 9 m/S 679 mmHg 82%
    21:00 +7°C° 0 mm 9 m/S 680 mmHg 84%
    22:00 +7°C° 0 mm 9 m/S 680 mmHg 86%
    23:00 +7°C° 0 mm 10 m/S 680 mmHg 86%

    14 Dezember, Samstag

    Zeit Temperatur Niederschläge Wind Luftdruck Luftfeuchtigkeit
    00:00 +7°C° 0 mm 10 m/S 680 mmHg 86%
    01:00 +7°C° 0 mm 11 m/S 680 mmHg 86%
    02:00 +7°C° 0 mm 11 m/S 680 mmHg 86%
    03:00 +7°C° 0 mm 11 m/S 681 mmHg 87%
    04:00 +7°C° 0 mm 11 m/S 681 mmHg 87%
    05:00 +7°C° 0 mm 10 m/S 681 mmHg 87%
    06:00 +7°C° 0 mm 10 m/S 682 mmHg 87%
    07:00 +7°C° 0 mm 10 m/S 682 mmHg 87%
    08:00 +8°C° 0 mm 11 m/S 683 mmHg 84%
    09:00 +8°C° 0 mm 11 m/S 684 mmHg 82%
    10:00 +9°C° 0 mm 11 m/S 685 mmHg 79%
    11:00 +9°C° 0 mm 11 m/S 685 mmHg 75%
    12:00 +11°C° 0 mm 10 m/S 685 mmHg 71%
    13:00 +12°C° 0 mm 10 m/S 685 mmHg 67%
    14:00 +12°C° 0 mm 9 m/S 685 mmHg 67%
    15:00 +12°C° 0 mm 8 m/S 685 mmHg 66%
    16:00 +12°C° 0 mm 8 m/S 686 mmHg 66%
    17:00 +11°C° 0 mm 6 m/S 686 mmHg 72%
    18:00 +10°C° 0 mm 5 m/S 686 mmHg 77%
    19:00 +10°C° 0 mm 3 m/S 686 mmHg 82%
    20:00 +9°C° 0 mm 3 m/S 687 mmHg 83%
    21:00 +9°C° 0 mm 2 m/S 687 mmHg 83%
    22:00 +8°C° 0 mm 2 m/S 687 mmHg 83%
    23:00 +8°C° 0 mm 2 m/S 687 mmHg 80%

    15 Dezember, Sonntag

    Zeit Temperatur Niederschläge Wind Luftdruck Luftfeuchtigkeit
    00:00 +8°C° 0 mm 2 m/S 687 mmHg 78%
    01:00 +8°C° 0 mm 2 m/S 687 mmHg 75%
    02:00 +8°C° 0 mm 2 m/S 687 mmHg 75%
    03:00 +8°C° 0 mm 2 m/S 687 mmHg 76%
    04:00 +8°C° 0 mm 3 m/S 686 mmHg 76%
    05:00 +8°C° 0 mm 3 m/S 686 mmHg 77%
    06:00 +8°C° 0 mm 3 m/S 687 mmHg 78%
    07:00 +7°C° 0 mm 3 m/S 687 mmHg 79%
    08:00 +9°C° 0 mm 3 m/S 687 mmHg 73%
    09:00 +11°C° 0 mm 3 m/S 688 mmHg 67%
    10:00 +12°C° 0 mm 4 m/S 688 mmHg 61%
    11:00 +13°C° 0 mm 4 m/S 688 mmHg 56%
    12:00 +15°C° 0 mm 4 m/S 688 mmHg 50%
    13:00 +16°C° 0 mm 5 m/S 688 mmHg 45%
    14:00 +17°C° 0 mm 4 m/S 688 mmHg 46%
    15:00 +17°C° 0 mm 4 m/S 688 mmHg 47%
    16:00 +17°C° 0 mm 3 m/S 688 mmHg 48%
    17:00 +14°C° 0 mm 3 m/S 688 mmHg 54%
    18:00 +13°C° 0 mm 3 m/S 687 mmHg 60%
    19:00 +12°C° 0 mm 2 m/S 687 mmHg 66%
    20:00 +12°C° 0 mm 2 m/S 687 mmHg 67%
    21:00 +10°C° 0 mm 2 m/S 687 mmHg 68%
    22:00 +10°C° 0 mm 3 m/S 687 mmHg 69%
    23:00 +10°C° 0 mm 3 m/S 687 mmHg 70%

    16 Dezember, Montag

    Zeit Temperatur Niederschläge Wind Luftdruck Luftfeuchtigkeit
    00:00 +9°C° 0 mm 3 m/S 687 mmHg 71%
    01:00 +9°C° 0 mm 3 m/S 687 mmHg 71%
    02:00 +9°C° 0 mm 3 m/S 686 mmHg 72%
    03:00 +8°C° 0 mm 4 m/S 686 mmHg 73%
    04:00 +7°C° 0 mm 4 m/S 686 mmHg 74%
    05:00 +7°C° 0 mm 4 m/S 686 mmHg 74%
    06:00 +7°C° 0 mm 4 m/S 686 mmHg 74%
    07:00 +7°C° 0 mm 4 m/S 686 mmHg 74%
    08:00 +8°C° 0 mm 4 m/S 686 mmHg 68%
    09:00 +10°C° 0 mm 5 m/S 687 mmHg 62%
    10:00 +12°C° 0 mm 5 m/S 687 mmHg 56%
    11:00 +13°C° 0 mm 6 m/S 687 mmHg 52%
    12:00 +14°C° 0 mm 7 m/S 687 mmHg 49%
    13:00 +15°C° 0 mm 7 m/S 687 mmHg 45%
    14:00 +15°C° 0 mm 7 m/S 686 mmHg 46%
    15:00 +14°C° 0 mm 7 m/S 686 mmHg 47%
    16:00 +14°C° 0 mm 6 m/S 685 mmHg 48%
    17:00 +13°C° 0 mm 5 m/S 685 mmHg 54%
    18:00 +11°C° 0 mm 4 m/S 684 mmHg 60%
    19:00 +10°C° 0 mm 4 m/S 684 mmHg 66%
    20:00 +10°C° 0 mm 4 m/S 684 mmHg 67%
    21:00 +8°C° 0 mm 4 m/S 684 mmHg 69%
    22:00 +8°C° 0 mm 4 m/S 684 mmHg 70%
    23:00 +8°C° 0 mm 4 m/S 684 mmHg 70%
    Mehr zeigen